Time,TemperatureF,DewpointF,PressureIn,WindDirection,WindDirectionDegrees,WindSpeedMPH,WindSpeedGustMPH,Humidity,HourlyPrecipIn,Conditions,Clouds,dailyrainin,SoftwareType,DateUTC
2013-02-24 00:06:00,28.0,27.5,29.88,North,0,0.0,-999.0,98,-99.99,,,0.00,Acu-Link.com,2013-02-24 05:06:00,
2013-02-24 00:21:00,28.0,27.5,29.88,North,0,0.0,-999.0,98,-99.99,,,0.00,Acu-Link.com,2013-02-24 05:21:00,
2013-02-24 00:36:00,28.0,27.5,29.86,North,0,0.0,-999.0,98,-99.99,,,0.00,Acu-Link.com,2013-02-24 05:36:00,
2013-02-24 00:52:00,28.0,27.5,29.87,North,0,0.0,-999.0,98,-99.99,,,0.00,Acu-Link.com,2013-02-24 05:52:00,
2013-02-24 01:07:00,28.0,27.5,29.86,North,0,0.0,-999.0,98,-99.99,,,0.00,Acu-Link.com,2013-02-24 06:07:00,
2013-02-24 01:22:00,28.0,27.5,29.85,North,0,0.0,-999.0,98,-99.99,,,0.00,Acu-Link.com,2013-02-24 06:22:00,
2013-02-24 01:37:00,28.0,27.5,29.85,North,0,0.0,-999.0,98,-99.99,,,0.00,Acu-Link.com,2013-02-24 06:37:00,
2013-02-24 01:52:00,27.9,27.4,29.85,North,0,0.0,-999.0,98,-99.99,,,0.00,Acu-Link.com,2013-02-24 06:52:00,
2013-02-24 02:08:00,27.9,27.4,29.85,North,0,0.0,-999.0,98,-99.99,,,0.00,Acu-Link.com,2013-02-24 07:08:00,
2013-02-24 02:23:00,27.9,27.4,29.85,North,0,0.0,-999.0,98,-99.99,,,0.00,Acu-Link.com,2013-02-24 07:23:00,
2013-02-24 02:38:00,27.9,27.4,29.84,North,0,0.0,-999.0,98,-99.99,,,0.00,Acu-Link.com,2013-02-24 07:38:00,
2013-02-24 02:53:00,27.9,27.4,29.83,North,0,0.0,-999.0,98,-99.99,,,0.00,Acu-Link.com,2013-02-24 07:53:00,
2013-02-24 03:08:00,27.9,27.4,29.83,North,0,0.0,-999.0,98,-99.99,,,0.00,Acu-Link.com,2013-02-24 08:08:00,
2013-02-24 03:24:00,27.9,27.4,29.83,North,0,0.0,-999.0,98,-99.99,,,0.00,Acu-Link.com,2013-02-24 08:24:00,
2013-02-24 03:39:00,27.9,27.4,29.83,North,0,0.0,-999.0,98,-99.99,,,0.00,Acu-Link.com,2013-02-24 08:39:00,
2013-02-24 03:54:00,27.9,27.4,29.82,North,0,0.0,-999.0,98,-99.99,,,0.00,Acu-Link.com,2013-02-24 08:54:00,
2013-02-24 04:18:00,27.9,27.4,29.82,North,0,0.0,-999.0,98,-99.99,,,0.00,Acu-Link.com,2013-02-24 09:18:00,
2013-02-24 04:33:00,27.9,27.4,29.83,North,0,0.0,-999.0,98,-99.99,,,0.00,Acu-Link.com,2013-02-24 09:33:00,
2013-02-24 04:48:00,27.9,27.4,29.82,North,0,0.0,-999.0,98,-99.99,,,0.00,Acu-Link.com,2013-02-24 09:48:00,
2013-02-24 05:04:00,27.9,27.4,29.82,North,0,0.0,-999.0,98,-99.99,,,0.00,Acu-Link.com,2013-02-24 10:04:00,
2013-02-24 05:19:00,27.9,27.4,29.83,North,0,0.0,-999.0,98,-99.99,,,0.00,Acu-Link.com,2013-02-24 10:19:00,
2013-02-24 05:34:00,27.9,27.4,29.83,North,0,0.0,-999.0,98,-99.99,,,0.00,Acu-Link.com,2013-02-24 10:34:00,
2013-02-24 05:49:00,27.9,27.4,29.84,North,0,0.0,-999.0,98,-99.99,,,0.00,Acu-Link.com,2013-02-24 10:49:00,
2013-02-24 06:04:00,27.9,27.4,29.83,North,0,0.0,-999.0,98,-99.99,,,0.00,Acu-Link.com,2013-02-24 11:04:00,
2013-02-24 06:20:00,27.9,27.4,29.84,North,0,0.0,-999.0,98,-99.99,,,0.00,Acu-Link.com,2013-02-24 11:20:00,
2013-02-24 06:35:00,27.9,27.4,29.84,North,0,0.0,-999.0,98,-99.99,,,0.00,Acu-Link.com,2013-02-24 11:35:00,
2013-02-24 06:50:00,27.9,27.4,29.84,North,0,0.0,-999.0,98,-99.99,,,0.00,Acu-Link.com,2013-02-24 11:50:00,
2013-02-24 07:05:00,27.9,27.4,29.84,North,0,0.0,-999.0,98,-99.99,,,0.00,Acu-Link.com,2013-02-24 12:05:00,
2013-02-24 07:20:00,27.9,27.4,29.84,North,0,0.0,-999.0,98,-99.99,,,0.00,Acu-Link.com,2013-02-24 12:20:00,
2013-02-24 07:35:00,28.0,27.5,29.84,North,0,0.0,-999.0,98,-99.99,,,0.00,Acu-Link.com,2013-02-24 12:35:00,
2013-02-24 07:51:00,28.2,27.7,29.84,North,0,0.0,-999.0,98,-99.99,,,0.00,Acu-Link.com,2013-02-24 12:51:00,
2013-02-24 08:06:00,28.4,27.9,29.84,North,0,0.0,-999.0,98,-99.99,,,0.00,Acu-Link.com,2013-02-24 13:06:00,
2013-02-24 08:21:00,28.6,28.1,29.84,North,0,0.0,-999.0,98,-99.99,,,0.00,Acu-Link.com,2013-02-24 13:21:00,
2013-02-24 08:36:00,28.6,28.1,29.83,North,0,0.0,-999.0,98,-99.99,,,0.00,Acu-Link.com,2013-02-24 13:36:00,
2013-02-24 08:51:00,29.1,28.6,29.83,North,0,0.0,-999.0,98,-99.99,,,0.00,Acu-Link.com,2013-02-24 13:51:00,
2013-02-24 09:07:00,29.3,28.8,29.83,North,0,0.0,-999.0,98,-99.99,,,0.00,Acu-Link.com,2013-02-24 14:07:00,
2013-02-24 09:22:00,29.1,28.6,29.83,North,0,0.0,-999.0,98,-99.99,,,0.00,Acu-Link.com,2013-02-24 14:22:00,
2013-02-24 09:37:00,29.8,29.3,29.83,North,0,0.0,-999.0,98,-99.99,,,0.00,Acu-Link.com,2013-02-24 14:37:00,
2013-02-24 09:52:00,30.6,30.1,29.83,North,0,0.0,-999.0,98,-99.99,,,0.00,Acu-Link.com,2013-02-24 14:52:00,
2013-02-24 10:07:00,31.3,30.8,29.83,North,0,0.0,-999.0,98,-99.99,,,0.00,Acu-Link.com,2013-02-24 15:07:00,
2013-02-24 10:23:00,30.7,30.2,29.83,North,0,0.0,-999.0,98,-99.99,,,0.00,Acu-Link.com,2013-02-24 15:23:00,
2013-02-24 10:38:00,32.5,32.0,29.83,North,0,0.0,-999.0,98,-99.99,,,0.00,Acu-Link.com,2013-02-24 15:38:00,
2013-02-24 10:53:00,32.4,31.9,29.82,North,0,0.0,-999.0,98,-99.99,,,0.00,Acu-Link.com,2013-02-24 15:53:00,
2013-02-24 11:08:00,32.9,32.4,29.82,North,0,0.0,-999.0,98,-99.99,,,0.00,Acu-Link.com,2013-02-24 16:08:00,
2013-02-24 11:24:00,32.5,32.0,29.82,North,0,0.0,-999.0,98,-99.99,,,0.00,Acu-Link.com,2013-02-24 16:24:00,
2013-02-24 11:39:00,32.5,32.0,29.82,North,0,0.0,-999.0,98,-99.99,,,0.00,Acu-Link.com,2013-02-24 16:39:00,
2013-02-24 11:55:00,34.0,32.2,29.82,North,0,0.0,-999.0,93,-99.99,,,0.00,Acu-Link.com,2013-02-24 16:55:00,
2013-02-24 12:10:00,33.6,31.8,29.82,North,0,0.0,-999.0,93,-99.99,,,0.00,Acu-Link.com,2013-02-24 17:10:00,
2013-02-24 12:25:00,34.5,31.9,29.82,North,0,0.0,-999.0,90,-99.99,,,0.00,Acu-Link.com,2013-02-24 17:25:00,
2013-02-24 12:40:00,33.8,30.6,29.82,North,0,0.0,-999.0,88,-99.99,,,0.00,Acu-Link.com,2013-02-24 17:40:00,
2013-02-24 12:55:00,35.1,31.0,29.82,North,0,0.0,-999.0,85,-99.99,,,0.00,Acu-Link.com,2013-02-24 17:55:00,
2013-02-24 13:11:00,35.8,30.2,29.82,North,0,0.0,-999.0,80,-99.99,,,0.00,Acu-Link.com,2013-02-24 18:11:00,
2013-02-24 13:26:00,36.0,30.4,29.82,North,0,0.0,-999.0,80,-99.99,,,0.00,Acu-Link.com,2013-02-24 18:26:00,
2013-02-24 13:41:00,34.7,30.9,29.82,North,0,0.0,-999.0,86,-99.99,,,0.01,Acu-Link.com,2013-02-24 18:41:00,
2013-02-24 13:56:00,34.3,30.0,29.82,North,0,0.0,-999.0,84,-99.99,,,0.01,Acu-Link.com,2013-02-24 18:56:00,
2013-02-24 14:11:00,34.3,31.2,29.82,North,0,0.0,-999.0,88,-99.99,,,0.01,Acu-Link.com,2013-02-24 19:11:00,
2013-02-24 14:27:00,33.8,33.3,29.82,North,0,0.0,-999.0,98,-99.99,,,0.01,Acu-Link.com,2013-02-24 19:27:00,
2013-02-24 14:42:00,33.1,32.6,29.82,North,0,0.0,-999.0,98,-99.99,,,0.01,Acu-Link.com,2013-02-24 19:42:00,
2013-02-24 14:57:00,32.9,32.4,29.83,North,0,0.0,-999.0,98,-99.99,,,0.01,Acu-Link.com,2013-02-24 19:57:00,
2013-02-24 15:12:00,32.9,32.4,29.83,North,0,0.0,-999.0,98,-99.99,,,0.01,Acu-Link.com,2013-02-24 20:12:00,
2013-02-24 15:27:00,33.1,32.6,29.83,North,0,0.0,-999.0,98,-99.99,,,0.01,Acu-Link.com,2013-02-24 20:27:00,
2013-02-24 15:43:00,32.2,31.7,29.84,North,0,0.0,-999.0,98,-99.99,,,0.01,Acu-Link.com,2013-02-24 20:43:00,
2013-02-24 15:58:00,32.2,31.7,29.84,North,0,0.0,-999.0,98,-99.99,,,0.01,Acu-Link.com,2013-02-24 20:58:00,
2013-02-24 16:13:00,32.2,31.7,29.85,North,0,0.0,-999.0,98,-99.99,,,0.01,Acu-Link.com,2013-02-24 21:13:00,
2013-02-24 16:28:00,32.0,31.5,29.85,North,0,0.0,-999.0,98,-99.99,,,0.01,Acu-Link.com,2013-02-24 21:28:00,
2013-02-24 16:43:00,31.6,31.1,29.85,North,0,0.0,-999.0,98,-99.99,,,0.01,Acu-Link.com,2013-02-24 21:43:00,
2013-02-24 16:59:00,31.8,31.3,29.85,North,0,0.0,-999.0,98,-99.99,,,0.01,Acu-Link.com,2013-02-24 21:59:00,
2013-02-24 17:14:00,31.8,31.3,29.86,North,0,0.0,-999.0,98,-99.99,,,0.01,Acu-Link.com,2013-02-24 22:14:00,
2013-02-24 17:29:00,31.3,30.8,29.86,North,0,0.0,-999.0,98,-99.99,,,0.01,Acu-Link.com,2013-02-24 22:29:00,
2013-02-24 17:44:00,30.9,30.4,29.87,North,0,0.0,-999.0,98,-99.99,,,0.01,Acu-Link.com,2013-02-24 22:44:00,
2013-02-24 17:59:00,30.7,30.2,29.87,North,0,0.0,-999.0,98,-99.99,,,0.01,Acu-Link.com,2013-02-24 22:59:00,
2013-02-24 18:15:00,30.6,30.1,29.88,North,0,0.0,-999.0,98,-99.99,,,0.01,Acu-Link.com,2013-02-24 23:15:00,
2013-02-24 18:30:00,30.4,29.9,29.89,North,0,0.0,-999.0,98,-99.99,,,0.01,Acu-Link.com,2013-02-24 23:30:00,
2013-02-24 18:45:00,30.2,29.7,29.89,North,0,0.0,-999.0,98,-99.99,,,0.01,Acu-Link.com,2013-02-24 23:45:00,
2013-02-24 19:00:00,30.0,29.5,29.89,North,0,0.0,-999.0,98,-99.99,,,0.01,Acu-Link.com,2013-02-25 00:00:00,
2013-02-24 19:15:00,29.8,29.3,29.90,North,0,0.0,-999.0,98,-99.99,,,0.01,Acu-Link.com,2013-02-25 00:15:00,
2013-02-24 19:31:00,29.8,29.3,29.91,North,0,0.0,-999.0,98,-99.99,,,0.01,Acu-Link.com,2013-02-25 00:31:00,
2013-02-24 19:46:00,29.7,29.2,29.91,North,0,0.0,-999.0,98,-99.99,,,0.01,Acu-Link.com,2013-02-25 00:46:00,
2013-02-24 20:01:00,29.5,29.0,29.91,North,0,0.0,-999.0,98,-99.99,,,0.01,Acu-Link.com,2013-02-25 01:01:00,
2013-02-24 20:16:00,29.3,28.8,29.92,North,0,0.0,-999.0,98,-99.99,,,0.01,Acu-Link.com,2013-02-25 01:16:00,
2013-02-24 20:31:00,29.1,28.6,29.92,North,0,0.0,-999.0,98,-99.99,,,0.01,Acu-Link.com,2013-02-25 01:31:00,
2013-02-24 20:47:00,28.8,28.3,29.92,North,0,0.0,-999.0,98,-99.99,,,0.01,Acu-Link.com,2013-02-25 01:47:00,
2013-02-24 21:02:00,28.8,28.3,29.93,North,0,0.0,-999.0,98,-99.99,,,0.01,Acu-Link.com,2013-02-25 02:02:00,
2013-02-24 21:17:00,28.4,27.9,29.94,North,0,0.0,-999.0,98,-99.99,,,0.01,Acu-Link.com,2013-02-25 02:17:00,
2013-02-24 21:32:00,28.6,28.1,29.94,North,0,0.0,-999.0,98,-99.99,,,0.01,Acu-Link.com,2013-02-25 02:32:00,
2013-02-24 21:47:00,28.8,28.3,29.94,North,0,0.0,-999.0,98,-99.99,,,0.01,Acu-Link.com,2013-02-25 02:47:00,
2013-02-24 22:03:00,28.8,28.3,29.94,North,0,0.0,-999.0,98,-99.99,,,0.01,Acu-Link.com,2013-02-25 03:03:00,
2013-02-24 22:18:00,28.8,28.3,29.95,North,0,0.0,-999.0,98,-99.99,,,0.01,Acu-Link.com,2013-02-25 03:18:00,
2013-02-24 22:33:00,28.9,28.4,29.95,North,0,0.0,-999.0,98,-99.99,,,0.01,Acu-Link.com,2013-02-25 03:33:00,
2013-02-24 22:48:00,28.9,28.4,29.95,North,0,0.0,-999.0,98,-99.99,,,0.01,Acu-Link.com,2013-02-25 03:48:00,
2013-02-24 23:03:00,28.8,28.3,29.95,North,0,0.0,-999.0,98,-99.99,,,0.01,Acu-Link.com,2013-02-25 04:03:00,
2013-02-24 23:19:00,28.8,28.3,29.96,North,0,0.0,-999.0,98,-99.99,,,0.01,Acu-Link.com,2013-02-25 04:19:00,
2013-02-24 23:34:00,28.8,28.3,29.96,North,0,0.0,-999.0,98,-99.99,,,0.01,Acu-Link.com,2013-02-25 04:34:00,
2013-02-24 23:49:00,28.8,28.3,29.97,North,0,0.0,-999.0,98,-99.99,,,0.01,Acu-Link.com,2013-02-25 04:49:00,